contact:dominique.lefevre@mio.osupytheas.fr, maurice.libes@osupytheas.fr, didier.mallarino@osupytheas.fr
Project:EMSO http://www.emso-fr.org/EMSO-France
Depth: 2436.0 m
Title:EMSO Ligure Ouest : Data MII capteur AQUADOPP
Date,Latitude,Longitude,X_East,Y_North,Z_Up,Amplitude_X,Amplitude_Y,Amplitude_Z,Batterie,SoundSpeed,Heading,Pitch,Roll,Pressure,TIS,Speed,Direction
, degrees North, degrees East, m.s-1, m.s-1,m.s-1, 1, 1, 1, Volt, m.s-1, degree, degree, degree, dbar, degree_C, m.s-1, degree
2023-10-26T00:04:03,42.805,6.029,-0.053,-0.005,-0.018,106.0,105.0,103.0,13.3,1505.2,348.5,-0.8,1.8,2471.533,13.29,0.053,264.6
2023-10-26T00:07:03,42.805,6.029,-0.034,-0.02,-0.029,106.0,106.0,104.0,13.4,1505.2,345.7,-0.7,1.8,2471.534,13.29,0.039,239.5
2023-10-26T00:10:03,42.805,6.029,-0.042,-0.003,-0.029,105.0,105.0,103.0,13.4,1505.2,346.9,-0.8,1.8,2471.471,13.29,0.042,265.9
2023-10-26T00:13:03,42.805,6.029,-0.044,0.0,-0.02,106.0,105.0,103.0,13.4,1505.2,338.8,-0.7,1.8,2471.489,13.29,0.044,270.0
2023-10-26T00:16:03,42.805,6.029,-0.019,-0.002,-0.015,106.0,105.0,104.0,13.4,1505.2,341.9,-0.8,1.8,2471.45,13.29,0.019,264.0
2023-10-26T00:19:03,42.805,6.029,-0.043,-0.018,-0.03,106.0,104.0,103.0,13.4,1505.2,339.4,-0.7,1.8,2471.477,13.29,0.046,247.3
2023-10-26T00:22:03,42.805,6.029,-0.034,0.019,-0.016,106.0,105.0,104.0,13.3,1505.2,346.4,-0.8,1.8,2471.484,13.29,0.038,299.2
2023-10-26T00:25:03,42.805,6.029,-0.035,-0.004,-0.026,105.0,105.0,104.0,13.4,1505.2,338.9,-0.7,1.8,2471.443,13.29,0.035,263.5
2023-10-26T00:28:03,42.805,6.029,-0.029,-0.002,-0.04,106.0,105.0,104.0,13.4,1505.2,0.0,-0.7,1.8,2471.482,13.29,0.029,266.1
2023-10-26T00:31:03,42.805,6.029,-0.037,0.009,-0.019,106.0,104.0,104.0,13.4,1505.2,357.2,-0.8,1.8,2471.444,13.29,0.038,283.7
2023-10-26T00:34:03,42.805,6.029,-0.057,-0.003,-0.033,106.0,106.0,103.0,13.4,1505.2,341.3,-0.8,1.8,2471.485,13.29,0.057,267.0
2023-10-26T00:37:03,42.805,6.029,-0.045,0.005,-0.007,106.0,105.0,104.0,13.4,1505.2,345.2,-0.8,1.8,2471.488,13.29,0.045,276.3
2023-10-26T00:40:03,42.805,6.029,-0.061,-0.001,-0.014,106.0,106.0,102.0,13.4,1505.2,331.3,-0.7,1.8,2471.46,13.29,0.061,269.1
2023-10-26T00:43:03,42.805,6.029,-0.026,-0.008,-0.002,105.0,106.0,103.0,13.4,1505.2,339.6,-0.8,1.8,2471.456,13.29,0.027,252.9
2023-10-26T00:46:03,42.805,6.029,-0.048,0.006,0.0,105.0,105.0,103.0,13.4,1505.2,348.6,-0.8,1.8,2471.488,13.29,0.048,277.1
2023-10-26T00:49:03,42.805,6.029,-0.054,0.008,-0.011,105.0,105.0,103.0,13.4,1505.2,339.3,-0.8,1.8,2471.46,13.29,0.054,278.4
2023-10-26T00:52:03,42.805,6.029,-0.037,0.005,-0.028,105.0,105.0,103.0,13.4,1505.2,338.7,-0.7,1.8,2471.508,13.29,0.037,277.7
2023-10-26T00:55:03,42.805,6.029,-0.02,0.003,-0.016,105.0,104.0,103.0,13.3,1505.2,347.9,-0.8,1.8,2471.537,13.29,0.02,278.5
2023-10-26T00:58:03,42.805,6.029,-0.032,0.019,-0.001,105.0,103.0,103.0,13.3,1505.2,350.7,-0.8,1.8,2471.493,13.29,0.037,300.7
2023-10-26T01:04:03,42.805,6.029,-0.039,0.028,-0.027,105.0,104.0,101.0,13.4,1505.2,353.2,-0.7,1.8,2471.544,13.29,0.048,305.7
2023-10-26T01:07:03,42.805,6.029,-0.019,0.003,-0.021,104.0,103.0,101.0,13.4,1505.2,347.0,-0.8,1.8,2471.542,13.29,0.019,279.0
2023-10-26T01:10:03,42.805,6.029,-0.052,0.023,-0.028,104.0,104.0,102.0,13.4,1505.2,350.0,-0.8,1.8,2471.479,13.29,0.056,293.9
2023-10-26T01:13:03,42.805,6.029,-0.035,0.002,-0.029,103.0,105.0,102.0,13.3,1505.2,339.4,-0.8,1.8,2471.527,13.29,0.035,273.3
2023-10-26T01:16:03,42.805,6.029,-0.042,0.003,-0.033,105.0,103.0,103.0,13.4,1505.2,338.5,-0.7,1.8,2471.469,13.29,0.042,274.1
2023-10-26T01:19:03,42.805,6.029,-0.015,-0.005,-0.044,103.0,103.0,103.0,13.4,1505.2,337.3,-0.7,1.8,2471.541,13.29,0.015,251.6
2023-10-26T01:22:02,42.805,6.029,-0.026,-0.002,-0.027,104.0,104.0,101.0,13.4,1505.2,351.6,-0.8,1.8,2471.477,13.29,0.026,265.6
2023-10-26T01:25:03,42.805,6.029,-0.061,0.011,-0.012,104.0,104.0,102.0,13.4,1505.2,339.8,-0.8,1.8,2471.452,13.29,0.061,280.2
2023-10-26T01:28:03,42.805,6.029,-0.045,-0.001,-0.051,104.0,103.0,102.0,13.3,1505.2,340.0,-0.8,1.8,2471.506,13.29,0.045,268.7
2023-10-26T01:31:03,42.805,6.029,-0.001,0.022,-0.008,104.0,104.0,104.0,13.4,1505.2,357.3,-0.8,1.8,2471.499,13.29,0.022,357.4
2023-10-26T01:34:03,42.805,6.029,-0.036,0.025,-0.031,105.0,103.0,102.0,13.4,1505.2,357.0,-0.8,1.8,2471.503,13.29,0.043,304.8
2023-10-26T01:37:03,42.805,6.029,-0.022,0.02,-0.039,105.0,102.0,102.0,13.4,1505.2,344.3,-0.8,1.8,2471.507,13.29,0.029,312.3
2023-10-26T01:40:03,42.805,6.029,-0.033,-0.004,-0.022,104.0,104.0,102.0,13.4,1505.2,335.0,-0.7,1.8,2471.497,13.29,0.033,263.1
2023-10-26T01:43:03,42.805,6.029,-0.026,-0.012,-0.015,104.0,103.0,102.0,13.4,1505.2,349.8,-0.8,1.8,2471.491,13.29,0.028,245.2
2023-10-26T01:46:03,42.805,6.029,-0.013,0.018,-0.015,104.0,104.0,102.0,13.3,1505.2,347.7,-0.7,1.8,2471.491,13.29,0.022,324.2
2023-10-26T01:49:03,42.805,6.029,-0.034,0.008,-0.046,105.0,104.0,102.0,13.3,1505.2,350.0,-0.7,1.8,2471.549,13.29,0.034,283.2
2023-10-26T01:52:03,42.805,6.029,-0.024,0.02,0.012,104.0,103.0,102.0,13.3,1505.2,349.6,-0.8,1.8,2471.521,13.29,0.031,309.8
2023-10-26T01:55:03,42.805,6.029,-0.044,0.03,-0.015,104.0,103.0,102.0,13.4,1505.2,344.4,-0.7,1.8,2471.501,13.29,0.053,304.3
2023-10-26T01:58:03,42.805,6.029,-0.03,0.01,-0.013,104.0,104.0,102.0,13.3,1505.2,348.5,-0.8,1.8,2471.469,13.29,0.031,288.4
2023-10-26T02:04:03,42.805,6.029,-0.037,0.001,-0.016,104.0,104.0,102.0,13.4,1505.2,352.0,-0.8,1.8,2471.561,13.29,0.037,271.5
2023-10-26T02:07:03,42.805,6.029,-0.036,0.02,0.006,104.0,102.0,104.0,13.4,1505.2,351.0,-0.8,1.8,2471.544,13.29,0.041,299.1
2023-10-26T02:10:03,42.805,6.029,-0.042,0.005,-0.014,106.0,104.0,102.0,13.4,1505.2,347.2,-0.8,1.8,2471.573,13.29,0.042,276.8
2023-10-26T02:13:03,42.805,6.029,-0.056,0.001,-0.008,106.0,105.0,102.0,13.3,1505.2,341.2,-0.8,1.8,2471.582,13.29,0.056,271.0
2023-10-26T02:16:03,42.805,6.029,-0.047,0.004,-0.018,106.0,104.0,102.0,13.4,1505.2,337.8,-0.7,1.8,2471.524,13.29,0.047,274.9
2023-10-26T02:19:03,42.805,6.029,-0.022,-0.014,-0.02,106.0,103.0,103.0,13.4,1505.2,336.6,-0.8,1.8,2471.507,13.29,0.026,237.5
2023-10-26T02:22:03,42.805,6.029,-0.035,0.006,-0.032,105.0,105.0,103.0,13.3,1505.2,336.0,-0.8,1.8,2471.539,13.29,0.035,279.7
2023-10-26T02:25:03,42.805,6.029,-0.032,-0.022,-0.05,103.0,104.0,103.0,13.4,1505.2,351.0,-0.8,1.8,2471.518,13.29,0.038,235.5
2023-10-26T02:28:03,42.805,6.029,-0.054,-0.003,-0.05,104.0,103.0,102.0,13.3,1505.2,348.6,-0.8,1.8,2471.557,13.29,0.054,266.8
2023-10-26T02:31:03,42.805,6.029,-0.039,0.018,-0.015,103.0,105.0,103.0,13.4,1505.2,342.8,-0.8,1.8,2471.547,13.29,0.042,294.8
2023-10-26T02:34:03,42.805,6.029,-0.038,0.001,-0.041,105.0,104.0,101.0,13.3,1505.2,330.6,-0.8,1.8,2471.555,13.29,0.038,271.5
2023-10-26T02:37:03,42.805,6.029,-0.021,0.011,-0.022,106.0,104.0,101.0,13.4,1505.2,344.9,-0.8,1.8,2471.537,13.29,0.023,297.6
2023-10-26T02:40:03,42.805,6.029,-0.026,-0.002,-0.031,107.0,104.0,102.0,13.4,1505.2,337.0,-0.7,1.8,2471.538,13.29,0.026,265.6
2023-10-26T02:43:03,42.805,6.029,-0.047,0.024,-0.007,105.0,104.0,102.0,13.3,1505.2,341.8,-0.7,1.8,2471.568,13.29,0.052,297.0
2023-10-26T02:46:03,42.805,6.029,-0.039,0.016,-0.03,104.0,105.0,103.0,13.4,1505.2,356.4,-0.7,1.8,2471.562,13.29,0.042,292.3
2023-10-26T02:49:03,42.805,6.029,-0.066,0.029,-0.025,104.0,104.0,102.0,13.4,1505.2,357.1,-0.8,1.8,2471.563,13.29,0.072,293.7
2023-10-26T02:52:03,42.805,6.029,-0.009,0.0,-0.012,104.0,104.0,103.0,13.4,1505.2,351.2,-0.8,1.8,2471.556,13.29,0.009,270.0
2023-10-26T02:55:03,42.805,6.029,-0.055,0.012,-0.025,104.0,104.0,102.0,13.4,1505.2,343.3,-0.8,1.8,2471.569,13.29,0.056,282.3
2023-10-26T02:58:03,42.805,6.029,-0.054,0.003,-0.013,105.0,104.0,103.0,13.4,1505.2,333.8,-0.8,1.8,2471.552,13.29,0.054,273.2
2023-10-26T03:04:03,42.805,6.029,-0.028,0.026,0.006,105.0,103.0,102.0,13.4,1505.2,350.0,-0.8,1.8,2471.61,13.28,0.038,312.9
2023-10-26T03:07:03,42.805,6.029,-0.026,0.008,-0.035,105.0,104.0,102.0,13.3,1505.2,350.5,-0.8,1.8,2471.596,13.29,0.027,287.1
2023-10-26T03:10:03,42.805,6.029,-0.024,-0.004,-0.011,105.0,103.0,104.0,13.4,1505.2,345.9,-0.7,1.8,2471.563,13.29,0.024,260.5
2023-10-26T03:13:03,42.805,6.029,-0.039,0.014,-0.012,104.0,104.0,103.0,13.4,1505.2,336.8,-0.8,1.8,2471.598,13.29,0.041,289.7
2023-10-26T03:16:03,42.805,6.029,-0.059,0.035,-0.009,105.0,103.0,103.0,13.4,1505.2,349.2,-0.8,1.8,2471.594,13.29,0.068,300.7
2023-10-26T03:19:03,42.805,6.029,-0.032,0.017,-0.019,103.0,104.0,103.0,13.4,1505.2,347.0,-0.8,1.8,2471.578,13.29,0.036,298.0
2023-10-26T03:22:03,42.805,6.029,-0.027,0.011,-0.019,105.0,105.0,102.0,13.3,1505.2,352.6,-0.7,1.8,2471.586,13.29,0.029,292.2
2023-10-26T03:25:03,42.805,6.029,-0.024,-0.004,-0.018,104.0,103.0,103.0,13.3,1505.2,347.4,-0.8,1.8,2471.602,13.29,0.024,260.5
2023-10-26T03:28:03,42.805,6.029,-0.031,0.013,-0.02,104.0,105.0,103.0,13.4,1505.2,347.6,-0.8,1.8,2471.605,13.29,0.033,292.7
2023-10-26T03:31:03,42.805,6.029,-0.03,-0.011,-0.03,105.0,105.0,102.0,13.4,1505.2,341.2,-0.8,1.8,2471.598,13.29,0.031,249.9
2023-10-26T03:34:03,42.805,6.029,-0.041,0.025,-0.033,104.0,103.0,103.0,13.4,1505.2,348.3,-0.7,1.8,2471.6,13.29,0.048,301.4
2023-10-26T03:37:03,42.805,6.029,-0.039,0.031,-0.022,104.0,104.0,102.0,13.4,1505.2,351.0,-0.8,1.8,2471.588,13.29,0.049,308.5
2023-10-26T03:40:03,42.805,6.029,-0.048,0.011,0.013,104.0,105.0,103.0,13.4,1505.2,339.0,-0.8,1.8,2471.573,13.29,0.049,282.9
2023-10-26T03:43:03,42.805,6.029,-0.033,0.009,-0.022,104.0,104.0,102.0,13.4,1505.2,350.5,-0.8,1.8,2471.606,13.29,0.034,285.3
2023-10-26T03:46:03,42.805,6.029,-0.076,0.009,-0.062,105.0,104.0,102.0,13.4,1505.2,340.1,-0.7,1.8,2471.59,13.29,0.076,276.8
2023-10-26T03:49:03,42.805,6.029,-0.038,0.005,-0.019,105.0,103.0,103.0,13.3,1505.2,349.9,-0.7,1.8,2471.581,13.29,0.038,277.5
2023-10-26T03:52:03,42.805,6.029,-0.027,0.007,-0.029,104.0,105.0,103.0,13.4,1505.2,338.9,-0.7,1.8,2471.62,13.29,0.027,284.5
2023-10-26T03:55:03,42.805,6.029,-0.042,0.002,-0.026,105.0,104.0,102.0,13.4,1505.2,331.9,-0.8,1.8,2471.571,13.29,0.042,272.7
2023-10-26T03:58:03,42.805,6.029,-0.024,-0.004,-0.048,105.0,104.0,102.0,13.4,1505.2,349.6,-0.8,1.8,2471.567,13.29,0.024,260.5
2023-10-26T04:04:03,42.805,6.029,-0.049,0.013,-0.024,105.0,103.0,103.0,13.4,1505.2,351.4,-0.8,1.8,2471.651,13.28,0.05,284.9
2023-10-26T04:07:03,42.805,6.029,-0.044,0.02,0.0,105.0,104.0,102.0,13.4,1505.2,354.3,-0.8,1.8,2471.632,13.29,0.048,294.4
2023-10-26T04:10:03,42.805,6.029,-0.054,0.036,-0.062,105.0,103.0,102.0,13.4,1505.2,349.5,-0.8,1.8,2471.622,13.29,0.064,303.7
2023-10-26T04:13:03,42.805,6.029,-0.048,0.016,-0.009,105.0,104.0,102.0,13.3,1505.2,348.4,-0.8,1.8,2471.626,13.29,0.05,288.4
2023-10-26T04:16:03,42.805,6.029,-0.042,0.002,-0.056,103.0,103.0,102.0,13.4,1505.2,350.0,-0.8,1.8,2471.624,13.29,0.042,272.7
2023-10-26T04:19:03,42.805,6.029,-0.052,-0.005,-0.018,104.0,104.0,102.0,13.4,1505.2,330.6,-0.8,1.8,2471.652,13.29,0.052,264.5
2023-10-26T04:22:03,42.805,6.029,-0.044,0.0,-0.031,104.0,103.0,102.0,13.4,1505.2,331.5,-0.8,1.8,2471.609,13.29,0.044,270.0
2023-10-26T04:25:03,42.805,6.029,-0.02,-0.004,0.002,104.0,104.0,103.0,13.3,1505.2,332.5,-0.7,1.8,2471.624,13.29,0.02,258.7
2023-10-26T04:28:03,42.805,6.029,-0.051,0.02,-0.038,105.0,104.0,102.0,13.4,1505.2,353.7,-0.8,1.8,2471.588,13.29,0.054,291.4
2023-10-26T04:31:03,42.805,6.029,-0.038,-0.023,-0.009,104.0,103.0,102.0,13.4,1505.2,339.2,-0.8,1.8,2471.632,13.29,0.044,238.8
2023-10-26T04:34:03,42.805,6.029,-0.031,-0.004,-0.026,104.0,102.0,102.0,13.3,1505.2,340.0,-0.8,1.8,2471.63,13.29,0.031,262.7
2023-10-26T04:37:03,42.805,6.029,-0.019,0.028,0.003,104.0,104.0,102.0,13.3,1505.2,341.5,-0.8,1.8,2471.623,13.29,0.033,325.8
2023-10-26T04:40:03,42.805,6.029,-0.033,0.017,-0.041,104.0,103.0,103.0,13.4,1505.2,349.2,-0.8,1.8,2471.628,13.29,0.037,297.3
2023-10-26T04:43:03,42.805,6.029,-0.027,0.006,-0.015,104.0,103.0,102.0,13.4,1505.2,334.6,-0.8,1.8,2471.61,13.29,0.027,282.5
2023-10-26T04:46:03,42.805,6.029,-0.03,0.028,-0.006,103.0,103.0,103.0,13.4,1505.2,348.5,-0.8,1.8,2471.64,13.29,0.041,313.0
2023-10-26T04:49:03,42.805,6.029,-0.021,0.022,-0.031,104.0,104.0,102.0,13.4,1505.2,350.2,-0.8,1.8,2471.627,13.29,0.03,316.3
2023-10-26T04:52:03,42.805,6.029,-0.035,0.02,0.0,104.0,104.0,102.0,13.4,1505.2,330.9,-0.7,1.8,2471.597,13.29,0.04,299.7
2023-10-26T04:55:03,42.805,6.029,-0.032,0.003,-0.036,104.0,104.0,102.0,13.3,1505.2,336.6,-0.8,1.8,2471.599,13.29,0.032,275.4
2023-10-26T04:58:03,42.805,6.029,-0.05,0.015,-0.001,104.0,103.0,103.0,13.4,1505.2,340.5,-0.8,1.8,2471.594,13.29,0.052,286.7
2023-10-26T05:04:03,42.805,6.029,-0.041,0.009,-0.017,103.0,103.0,102.0,13.3,1505.2,337.1,-0.8,1.8,2471.627,13.28,0.041,282.4
2023-10-26T05:07:03,42.805,6.029,-0.046,-0.008,-0.02,103.0,103.0,102.0,13.3,1505.2,335.4,-0.8,1.8,2471.621,13.29,0.046,260.1
2023-10-26T05:10:03,42.805,6.029,-0.031,0.007,-0.033,104.0,103.0,102.0,13.4,1505.2,338.0,-0.8,1.8,2471.634,13.29,0.031,282.7
2023-10-26T05:13:03,42.805,6.029,-0.04,0.017,-0.008,104.0,104.0,102.0,13.4,1505.2,339.3,-0.7,1.8,2471.643,13.29,0.043,293.0
2023-10-26T05:16:03,42.805,6.029,-0.033,0.004,-0.038,103.0,102.0,103.0,13.4,1505.2,343.4,-0.7,1.8,2471.642,13.29,0.033,276.9
2023-10-26T05:19:03,42.805,6.029,-0.04,0.009,-0.01,104.0,103.0,103.0,13.3,1505.2,343.4,-0.8,1.8,2471.629,13.29,0.041,282.7
2023-10-26T05:22:03,42.805,6.029,-0.029,0.006,-0.016,105.0,101.0,102.0,13.4,1505.2,340.1,-0.7,1.8,2471.64,13.29,0.029,281.7
2023-10-26T05:25:03,42.805,6.029,-0.018,-0.003,-0.009,104.0,104.0,102.0,13.3,1505.2,353.2,-0.8,1.8,2471.631,13.29,0.018,260.5
2023-10-26T05:28:03,42.805,6.029,-0.032,-0.009,-0.036,104.0,103.0,102.0,13.4,1505.2,338.2,-0.8,1.8,2471.617,13.29,0.033,254.3
2023-10-26T05:31:03,42.805,6.029,-0.028,0.003,0.0,106.0,105.0,102.0,13.4,1505.2,345.9,-0.8,1.8,2471.596,13.29,0.028,276.1
2023-10-26T05:34:03,42.805,6.029,-0.033,-0.01,-0.049,103.0,103.0,103.0,13.4,1505.2,331.1,-0.8,1.9,2471.601,13.29,0.034,253.1
2023-10-26T05:37:03,42.805,6.029,-0.044,0.019,-0.009,104.0,105.0,102.0,13.4,1505.2,350.8,-0.8,1.8,2471.603,13.29,0.047,293.4
2023-10-26T05:40:03,42.805,6.029,-0.038,0.01,-0.039,104.0,103.0,102.0,13.4,1505.2,351.3,-0.8,1.9,2471.622,13.29,0.039,284.7
2023-10-26T05:43:03,42.805,6.029,-0.027,0.001,-0.021,105.0,103.0,103.0,13.4,1505.2,345.5,-0.8,1.8,2471.568,13.29,0.027,272.1
2023-10-26T05:46:03,42.805,6.029,-0.044,0.009,-0.045,104.0,105.0,102.0,13.3,1505.2,347.1,-0.8,1.8,2471.575,13.29,0.044,281.6
2023-10-26T05:49:03,42.805,6.029,-0.043,0.056,0.003,105.0,105.0,102.0,13.4,1505.2,353.1,-0.8,1.8,2471.629,13.29,0.07,322.5
2023-10-26T05:52:03,42.805,6.029,-0.029,0.017,-0.015,105.0,103.0,101.0,13.4,1505.2,349.6,-0.8,1.8,2471.599,13.29,0.033,300.4
2023-10-26T05:55:03,42.805,6.029,-0.047,0.019,-0.006,105.0,103.0,102.0,13.4,1505.2,338.5,-0.8,1.8,2471.613,13.29,0.05,292.0
2023-10-26T05:58:03,42.805,6.029,-0.03,0.003,-0.031,104.0,104.0,102.0,13.4,1505.2,340.9,-0.8,1.8,2471.62,13.29,0.03,275.7
2023-10-26T06:04:03,42.805,6.029,-0.012,-0.009,-0.038,104.0,103.0,102.0,13.4,1505.2,338.8,-0.8,1.8,2471.612,13.29,0.015,233.1
2023-10-26T06:07:03,42.805,6.029,-0.044,0.013,-0.023,104.0,103.0,103.0,13.4,1505.2,352.2,-0.7,1.8,2471.646,13.29,0.045,286.5
2023-10-26T06:10:03,42.805,6.029,-0.03,-0.002,-0.029,104.0,103.0,102.0,13.4,1505.2,336.8,-0.8,1.8,2471.642,13.29,0.03,266.2
2023-10-26T06:13:03,42.805,6.029,-0.038,0.0,-0.063,105.0,103.0,103.0,13.4,1505.2,349.0,-0.8,1.8,2471.68,13.29,0.038,270.0
2023-10-26T06:16:03,42.805,6.029,-0.02,0.011,-0.016,103.0,103.0,103.0,13.3,1505.2,346.4,-0.8,1.8,2471.611,13.29,0.022,298.8
2023-10-26T06:19:03,42.805,6.029,-0.042,0.004,-0.055,104.0,102.0,103.0,13.4,1505.2,339.6,-0.8,1.8,2471.634,13.29,0.042,275.4
2023-10-26T06:22:03,42.805,6.029,-0.017,-0.006,-0.028,104.0,104.0,102.0,13.4,1505.2,351.0,-0.8,1.8,2471.642,13.29,0.018,250.6
2023-10-26T06:25:03,42.805,6.029,-0.05,0.019,-0.034,103.0,103.0,103.0,13.3,1505.2,349.0,-0.8,1.8,2471.57,13.29,0.053,290.8
2023-10-26T06:28:03,42.805,6.029,-0.037,-0.007,-0.029,104.0,104.0,102.0,13.4,1505.2,350.0,-0.8,1.8,2471.599,13.29,0.037,259.3
2023-10-26T06:31:03,42.805,6.029,-0.043,-0.002,-0.043,104.0,103.0,102.0,13.3,1505.2,353.2,-0.7,1.8,2471.612,13.29,0.043,267.3
2023-10-26T06:34:03,42.805,6.029,-0.023,0.006,-0.032,103.0,103.0,102.0,13.4,1505.2,340.1,-0.7,1.8,2471.636,13.29,0.023,284.6
2023-10-26T06:37:03,42.805,6.029,-0.032,0.008,-0.02,103.0,103.0,102.0,13.4,1505.2,342.6,-0.8,1.8,2471.643,13.29,0.032,284.0
2023-10-26T06:40:03,42.805,6.029,-0.059,0.019,-0.051,104.0,103.0,102.0,13.4,1505.2,350.5,-0.7,1.8,2471.59,13.29,0.061,287.8
2023-10-26T06:43:03,42.805,6.029,-0.032,0.018,-0.029,103.0,105.0,101.0,13.4,1505.2,352.1,-0.8,1.8,2471.608,13.29,0.036,299.4
2023-10-26T06:46:03,42.805,6.029,-0.024,0.012,0.0,103.0,103.0,103.0,13.4,1505.2,345.9,-0.8,1.8,2471.606,13.29,0.026,296.6
2023-10-26T06:49:03,42.805,6.029,-0.073,-0.009,-0.037,104.0,102.0,103.0,13.4,1505.2,331.4,-0.8,1.8,2471.581,13.29,0.073,263.0
2023-10-26T06:52:02,42.805,6.029,-0.027,0.0,-0.017,104.0,103.0,102.0,13.4,1505.2,343.4,-0.8,1.8,2471.585,13.29,0.026,270.0
2023-10-26T06:55:03,42.805,6.029,-0.05,-0.01,-0.022,104.0,103.0,102.0,13.4,1505.2,330.6,-0.7,1.8,2471.573,13.29,0.05,258.7
2023-10-26T06:58:03,42.805,6.029,-0.029,-0.005,-0.038,103.0,104.0,101.0,13.4,1505.2,332.2,-0.8,1.8,2471.604,13.29,0.029,260.2
2023-10-26T07:04:03,42.805,6.029,-0.006,0.0,-0.014,105.0,103.0,102.0,13.4,1505.2,339.6,-0.8,1.8,2471.647,13.28,0.006,270.0
2023-10-26T07:07:03,42.805,6.029,-0.061,0.021,-0.047,104.0,103.0,102.0,13.4,1505.2,341.8,-0.8,1.8,2471.581,13.29,0.064,289.0
2023-10-26T07:10:03,42.805,6.029,-0.056,-0.001,-0.004,103.0,104.0,103.0,13.4,1505.2,339.5,-0.8,1.8,2471.601,13.29,0.056,269.0
2023-10-26T07:13:03,42.805,6.029,-0.031,0.004,0.002,104.0,103.0,102.0,13.4,1505.2,333.4,-0.8,1.8,2471.591,13.29,0.031,277.3
2023-10-26T07:16:03,42.805,6.029,-0.048,-0.004,-0.028,103.0,103.0,102.0,13.4,1505.2,331.7,-0.7,1.8,2471.571,13.29,0.048,265.2
2023-10-26T07:19:03,42.805,6.029,-0.057,0.021,-0.047,103.0,103.0,102.0,13.4,1505.2,352.4,-0.8,1.8,2471.629,13.29,0.06,290.2
2023-10-26T07:22:03,42.805,6.029,-0.053,0.012,-0.044,104.0,102.0,103.0,13.4,1505.2,350.2,-0.8,1.8,2471.585,13.29,0.054,282.8
2023-10-26T07:25:03,42.805,6.029,-0.038,-0.011,-0.047,103.0,103.0,102.0,13.4,1505.2,340.0,-0.7,1.8,2471.598,13.29,0.039,253.9
2023-10-26T07:28:03,42.805,6.029,-0.053,0.017,-0.025,104.0,102.0,103.0,13.4,1505.2,347.7,-0.7,1.8,2471.53,13.29,0.055,287.8
2023-10-26T07:31:03,42.805,6.029,-0.052,0.011,-0.048,104.0,103.0,102.0,13.3,1505.2,344.2,-0.8,1.9,2471.59,13.29,0.053,281.9
2023-10-26T07:34:03,42.805,6.029,-0.045,0.008,-0.027,104.0,103.0,101.0,13.3,1505.2,346.7,-0.7,1.8,2471.544,13.29,0.045,280.1
2023-10-26T07:37:03,42.805,6.029,-0.098,0.003,-0.014,104.0,103.0,102.0,13.3,1505.2,331.1,-0.8,1.8,2471.59,13.29,0.098,271.8
2023-10-26T07:40:03,42.805,6.029,-0.045,0.01,-0.044,104.0,103.0,102.0,13.4,1505.2,335.2,-0.8,1.8,2471.535,13.29,0.046,282.5
2023-10-26T07:43:03,42.805,6.029,-0.066,-0.001,-0.022,104.0,103.0,101.0,13.3,1505.2,331.1,-0.8,1.8,2471.591,13.29,0.066,269.1
2023-10-26T07:46:03,42.805,6.029,-0.04,0.019,-0.003,104.0,102.0,102.0,13.4,1505.2,344.0,-0.8,1.8,2471.551,13.29,0.044,295.4
2023-10-26T07:49:03,42.805,6.029,-0.054,0.012,-0.015,105.0,104.0,101.0,13.3,1505.2,346.2,-0.8,1.8,2471.551,13.29,0.055,282.5
2023-10-26T07:52:03,42.805,6.029,-0.033,-0.003,-0.025,103.0,104.0,102.0,13.4,1505.2,346.4,-0.8,1.8,2471.583,13.29,0.033,264.8
2023-10-26T07:55:03,42.805,6.029,-0.053,0.025,-0.026,104.0,103.0,102.0,13.4,1505.2,352.1,-0.8,1.8,2471.578,13.29,0.058,295.3
2023-10-26T07:58:03,42.805,6.029,-0.041,0.024,0.013,104.0,103.0,102.0,13.4,1505.2,349.0,-0.8,1.8,2471.536,13.29,0.047,300.3
2023-10-26T08:01:03,42.805,6.029,-0.033,0.014,0.004,103.0,103.0,102.0,13.4,1505.2,342.3,-0.8,1.8,2471.575,13.29,0.035,293.0
2023-10-26T08:04:03,42.805,6.029,-0.052,0.007,-0.01,104.0,103.0,102.0,13.3,1505.2,337.1,-0.8,1.8,2471.534,13.29,0.052,277.7
2023-10-26T08:07:03,42.805,6.029,-0.036,0.009,-0.014,104.0,103.0,103.0,13.4,1505.2,340.4,-0.7,1.8,2471.553,13.29,0.037,284.0
2023-10-26T08:10:03,42.805,6.029,-0.046,0.016,-0.061,104.0,103.0,101.0,13.4,1505.2,341.5,-0.8,1.8,2471.568,13.29,0.048,289.2
2023-10-26T08:13:03,42.805,6.029,-0.042,0.0,-0.031,104.0,103.0,102.0,13.4,1505.2,351.0,-0.8,1.8,2471.565,13.29,0.042,270.0
2023-10-26T08:16:03,42.805,6.029,-0.01,-0.006,-0.044,104.0,103.0,101.0,13.4,1505.2,354.3,-0.8,1.8,2471.539,13.29,0.011,239.0
2023-10-26T08:19:03,42.805,6.029,-0.03,-0.002,-0.041,104.0,102.0,101.0,13.4,1505.2,350.5,-0.7,1.8,2471.542,13.29,0.03,266.2
2023-10-26T08:22:03,42.805,6.029,-0.037,0.006,-0.039,104.0,103.0,102.0,13.4,1505.2,351.5,-0.8,1.8,2471.532,13.29,0.037,279.2
2023-10-26T08:25:03,42.805,6.029,-0.053,0.0,-0.018,103.0,103.0,103.0,13.4,1505.2,342.3,-0.8,1.9,2471.54,13.29,0.053,270.0
2023-10-26T08:28:03,42.805,6.029,-0.038,0.001,-0.074,104.0,103.0,102.0,13.4,1505.2,331.5,-0.7,1.8,2471.526,13.29,0.038,271.5
2023-10-26T08:31:03,42.805,6.029,-0.032,-0.004,-0.014,103.0,102.0,102.0,13.4,1505.2,333.8,-0.7,1.8,2471.518,13.29,0.032,262.9
2023-10-26T08:34:03,42.805,6.029,-0.044,0.001,-0.027,104.0,104.0,101.0,13.4,1505.2,334.5,-0.8,1.8,2471.525,13.29,0.044,271.3
2023-10-26T08:37:03,42.805,6.029,-0.039,0.011,-0.053,103.0,103.0,102.0,13.3,1505.2,333.4,-0.8,1.8,2471.558,13.29,0.04,285.7
2023-10-26T08:40:03,42.805,6.029,-0.025,-0.015,-0.006,104.0,103.0,102.0,13.4,1505.2,331.0,-0.8,1.8,2471.515,13.29,0.029,239.0
2023-10-26T08:43:03,42.805,6.029,-0.031,-0.015,-0.016,104.0,103.0,102.0,13.4,1505.2,336.6,-0.7,1.8,2471.534,13.29,0.034,244.2
2023-10-26T08:46:03,42.805,6.029,-0.028,0.017,0.0,104.0,102.0,102.0,13.3,1505.2,352.1,-0.8,1.8,2471.544,13.29,0.032,301.3
2023-10-26T08:49:03,42.805,6.029,-0.025,-0.003,-0.023,104.0,102.0,102.0,13.3,1505.2,342.6,-0.8,1.8,2471.497,13.29,0.025,263.2
2023-10-26T08:52:03,42.805,6.029,-0.056,0.008,-0.037,104.0,103.0,102.0,13.3,1505.2,345.9,-0.8,1.8,2471.513,13.29,0.056,278.1
2023-10-26T08:55:03,42.805,6.029,-0.006,-0.022,-0.011,103.0,103.0,102.0,13.4,1505.2,334.6,-0.7,1.8,2471.53,13.29,0.022,195.3
2023-10-26T08:58:03,42.805,6.029,-0.013,-0.001,-0.024,103.0,103.0,102.0,13.4,1505.2,352.1,-0.8,1.9,2471.525,13.29,0.013,265.6
2023-10-26T09:04:03,42.805,6.029,-0.046,-0.006,-0.027,105.0,103.0,101.0,13.3,1505.2,331.3,-0.8,1.8,2471.576,13.28,0.046,262.6
2023-10-26T09:07:03,42.805,6.029,-0.053,-0.005,-0.059,103.0,103.0,102.0,13.4,1505.2,335.6,-0.8,1.8,2471.54,13.29,0.053,264.6
2023-10-26T09:10:03,42.805,6.029,-0.061,-0.011,-0.032,103.0,103.0,102.0,13.3,1505.2,333.8,-0.7,1.9,2471.559,13.29,0.061,259.8
2023-10-26T09:13:03,42.805,6.029,-0.055,-0.004,-0.02,105.0,103.0,102.0,13.4,1505.2,335.0,-0.8,1.8,2471.565,13.29,0.055,265.8
2023-10-26T09:16:03,42.805,6.029,-0.051,-0.016,-0.014,105.0,103.0,101.0,13.4,1505.2,331.9,-0.8,1.8,2471.51,13.29,0.053,252.6
2023-10-26T09:19:03,42.805,6.029,-0.043,-0.02,-0.04,104.0,103.0,102.0,13.3,1505.2,344.4,-0.8,1.8,2471.573,13.29,0.047,245.1
2023-10-26T09:22:03,42.805,6.029,-0.046,0.013,-0.038,103.0,103.0,102.0,13.4,1505.2,351.1,-0.7,1.8,2471.551,13.29,0.047,285.8
2023-10-26T09:25:03,42.805,6.029,-0.037,0.032,-0.019,103.0,102.0,103.0,13.4,1505.2,348.8,-0.8,1.8,2471.534,13.29,0.048,310.9
2023-10-26T09:28:03,42.805,6.029,-0.055,0.003,-0.038,104.0,103.0,103.0,13.3,1505.2,336.4,-0.8,1.8,2471.533,13.29,0.055,273.1
2023-10-26T09:31:03,42.805,6.029,-0.049,0.012,-0.026,105.0,104.0,102.0,13.3,1505.2,331.0,-0.7,1.8,2471.508,13.29,0.05,283.8
2023-10-26T09:34:03,42.805,6.029,-0.05,-0.007,-0.03,104.0,104.0,102.0,13.3,1505.2,329.9,-0.7,1.8,2471.5,13.29,0.05,262.0
2023-10-26T09:37:03,42.805,6.029,-0.05,0.019,-0.012,103.0,104.0,102.0,13.4,1505.2,348.8,-0.8,1.8,2471.512,13.29,0.053,290.8
2023-10-26T09:40:03,42.805,6.029,-0.06,-0.015,-0.045,103.0,104.0,102.0,13.4,1505.2,351.8,-0.7,1.8,2471.495,13.29,0.061,256.0
2023-10-26T09:43:03,42.805,6.029,-0.058,0.016,-0.012,105.0,102.0,102.0,13.4,1505.2,346.2,-0.7,1.8,2471.497,13.29,0.06,285.4
2023-10-26T09:46:03,42.805,6.029,-0.061,-0.003,-0.013,104.0,104.0,101.0,13.4,1505.2,342.1,-0.7,1.8,2471.534,13.29,0.061,267.2
2023-10-26T09:49:03,42.805,6.029,-0.029,-0.022,-0.013,103.0,104.0,103.0,13.4,1505.2,335.6,-0.8,1.8,2471.526,13.29,0.036,232.8